START_TIME,STEP,MOV.,M15,t_acc.,M20,t_acc.
1979-07-01 09:00:44.870 ,0,0,0.,24.0,0.,24.0
1979-07-01 09:01:08.870 ,0,1,0.,24.0,0.,24.0
1979-07-01 09:01:32.870 ,0,0,0.,24.0,0.,24.0
1979-07-01 09:01:56.870 ,1,1,0.,24.0,0.,24.0
1979-07-01 09:02:20.870 ,1,0,0.,24.0,0.,24.0
1979-07-01 09:02:44.870 ,2,1,0.,24.0,0.,24.0
1979-07-01 09:03:08.870 ,2,0,0.,24.0,0.,24.0
1979-07-01 09:03:32.870 ,3,1,0.,24.0,0.,24.0
1979-07-01 09:03:56.870 ,3,0,0.,24.0,0.,24.0
1979-07-01 09:04:20.870 ,4,1,0.,24.0,0.,24.0
1979-07-01 09:04:44.870 ,0,0,,0,,0
1979-07-01 09:05:08.870 ,5,1,0.,24.0,0.,24.0
1979-07-01 09:05:32.870 ,5,0,0.,24.0,0.,24.0
1979-07-01 09:05:56.870 ,6,1,0.,24.0,0.,24.0
1979-07-01 09:06:20.870 ,6,0,0.,24.0,0.,24.0
1979-07-01 09:06:44.870 ,7,0,0.,24.0,0.,24.0
1979-07-01 09:07:08.870 ,7,0,0.,24.0,0.,24.0
1979-07-01 09:07:32.870 ,3,1,0.,24.0,0.,24.0
1979-07-01 09:07:56.870 ,0,1,0.,24.0,0.,24.0
1979-07-01 09:08:20.870 ,4,1,0.,24.0,0.,24.0
1979-07-01 09:08:44.870 ,7,1,0.,24.0,0.,24.0
1979-07-01 09:09:56.870 ,0,0,0.,24.0,0.,24.0
1979-07-01 09:10:20.870 ,7,1,0.,24.0,0.,24.0
1979-07-01 09:10:44.870 ,3,1,0.,24.0,0.,24.0
1979-07-01 09:11:08.870 ,0,1,0.,24.0,0.,24.0
1979-07-01 09:11:32.870 ,4,1,0.,24.0,0.,24.0
1979-07-01 09:11:56.870 ,7,1,0.,24.0,0.,24.0
1979-07-01 09:12:20.870 ,3,1,0.,24.0,0.,24.0
1979-07-01 09:12:44.870 ,0,1,0.,24.0,0.,24.0
1979-07-01 09:13:08.870 ,4,1,0.,24.0,0.,24.0
1979-07-01 09:13:32.870 ,7,1,0.,24.0,0.,24.0
1979-07-01 09:13:56.870 ,3,1,0.,24.0,0.,24.0
1979-07-01 09:14:20.870 ,0,1,0.,24.0,0.,24.0
1979-07-01 09:14:44.870 ,4,1,0.,24.0,0.,24.0
1979-07-01 09:15:08.870 ,7,1,0.,24.0,0.,24.0
1979-07-01 09:15:32.870 ,3,1,0.,24.0,0.,24.0
1979-07-01 09:15:56.870 ,0,1,0.,24.0,0.,24.0
1979-07-01 09:16:20.870 ,4,1,0.,24.0,0.,24.0
1979-07-01 09:16:44.870 ,7,1,0.,24.0,0.,24.0
1979-07-01 09:17:08.870 ,3,1,0.,24.0,0.,24.0
1979-07-01 09:17:32.870 ,0,1,0.,24.0,0.,24.0
1979-07-01 09:17:56.870 ,0,0,0.,24.0,0.,24.0
1979-07-01 09:18:20.870 ,0,0,0.,24.0,0.,24.0
1979-07-01 09:18:44.870 ,5,1,0.,24.0,0.,24.0
1979-07-01 09:19:08.870 ,5,0,0.,24.0,0.,24.0
1979-07-01 09:19:32.870 ,4,1,0.,24.0,0.,24.0
1979-07-01 09:19:56.870 ,4,0,0.,24.0,0.,24.0
1979-07-01 09:20:20.870 ,3,1,0.,24.0,0.,24.0
1979-07-01 09:20:44.870 ,3,0,0.,24.0,0.,24.0
1979-07-01 09:21:08.870 ,2,1,0.,24.0,0.,24.0
1979-07-01 09:21:32.870 ,2,0,0.,24.0,0.,24.0
1979-07-01 09:21:56.870 ,1,1,0.,24.0,0.,24.0
1979-07-01 09:22:20.870 ,1,0,0.,24.0,0.,24.0
1979-07-01 09:22:44.870 ,0,1,0.,24.0,0.,24.0
1979-07-01 09:23:08.870 ,0,0,0.,24.0,0.,24.0
1979-07-01 09:23:32.870 ,0,1,0.,24.0,0.,24.0
1979-07-01 09:23:56.870 ,0,0,0.,24.0,0.,24.0
1979-07-01 09:24:20.870 ,1,1,0.,24.0,0.,24.0
1979-07-01 09:24:44.870 ,1,0,0.,24.0,0.,24.0
1979-07-01 09:25:08.870 ,2,1,0.,24.0,0.,24.0
1979-07-01 09:25:32.870 ,2,0,0.,24.0,0.,24.0
1979-07-01 09:25:56.870 ,3,1,0.,24.0,0.,24.0
1979-07-01 09:26:20.870 ,3,0,0.,24.0,0.,24.0
1979-07-01 09:26:44.870 ,4,1,0.,24.0,0.,24.0
1979-07-01 09:27:08.870 ,4,0,0.,24.0,0.,24.0
1979-07-01 09:27:32.870 ,5,1,0.,24.0,0.,24.0
1979-07-01 09:27:56.870 ,5,0,0.,24.0,0.,24.0
1979-07-01 09:28:20.870 ,6,1,0.,24.0,0.,24.0
1979-07-01 09:28:44.870 ,6,0,0.,24.0,0.,24.0
1979-07-01 09:29:08.870 ,7,1,0.,24.0,0.,24.0
1979-07-01 09:29:32.870 ,7,0,0.,24.0,0.,24.0
1979-07-01 09:29:56.870 ,7,1,0.,24.0,0.,24.0
1979-07-01 09:30:20.870 ,7,0,0.,24.0,0.,24.0
1979-07-01 09:30:44.870 ,6,1,0.,24.0,0.,24.0
1979-07-01 09:31:08.870 ,6,0,0.,24.0,0.,24.0
1979-07-01 09:31:32.870 ,5,1,0.,24.0,0.,24.0
1979-07-01 09:31:56.870 ,5,0,0.,24.0,0.,24.0
1979-07-01 09:32:20.870 ,4,1,0.,24.0,0.,24.0
1979-07-01 09:32:44.870 ,4,0,0.,24.0,0.,24.0
1979-07-01 09:33:08.870 ,3,1,0.,24.0,0.,24.0
1979-07-01 09:33:32.870 ,3,0,0.,24.0,0.,24.0
1979-07-01 09:33:56.870 ,2,1,0.,24.0,0.,24.0
1979-07-01 09:34:20.870 ,2,0,0.,24.0,0.,24.0
1979-07-01 09:34:44.870 ,1,1,0.,24.0,0.,24.0
1979-07-01 09:35:08.870 ,1,0,0.,24.0,0.,24.0
1979-07-01 09:35:32.870 ,0,1,0.,24.0,0.,24.0
1979-07-01 09:35:56.870 ,0,0,0.,24.0,0.,24.0
1979-07-01 09:36:20.870 ,0,1,0.,24.0,0.,24.0
1979-07-01 09:36:44.870 ,0,0,0.,24.0,0.,24.0
1979-07-01 09:37:08.870 ,1,1,0.,24.0,0.,24.0
1979-07-01 09:37:32.870 ,1,0,0.,24.0,0.,24.0
1979-07-01 09:37:56.870 ,2,1,0.,24.0,0.,24.0
1979-07-01 09:38:20.870 ,2,0,0.,24.0,0.,24.0
1979-07-01 09:38:44.870 ,3,1,0.,24.0,0.,24.0
1979-07-01 09:39:08.870 ,3,0,0.,24.0,0.,24.0
1979-07-01 09:39:32.870 ,4,1,0.,24.0,0.,24.0
1979-07-01 09:39:56.870 ,4,0,0.,24.0,0.,24.0
1979-07-01 09:40:20.870 ,5,1,0.,24.0,0.,24.0
1979-07-01 09:40:44.870 ,5,0,0.,24.0,0.,24.0
1979-07-01 09:41:08.870 ,6,1,0.,24.0,0.,24.0
1979-07-01 09:41:32.870 ,6,0,0.,24.0,0.,24.0
1979-07-01 09:41:56.870 ,7,1,0.,24.0,0.,24.0
1979-07-01 09:42:20.870 ,7,0,0.,24.0,0.,24.0
1979-07-01 09:42:44.870 ,7,1,0.,24.0,0.,24.0
1979-07-01 09:43:08.870 ,7,0,0.,24.0,0.,24.0
1979-07-01 09:43:32.870 ,6,1,0.,24.0,0.,24.0
1979-07-01 09:43:56.870 ,6,0,0.,24.0,0.,24.0
1979-07-01 09:44:20.870 ,5,1,0.,24.0,0.,24.0
1979-07-01 09:44:44.870 ,5,0,0.,24.0,0.,24.0
1979-07-01 09:45:08.870 ,4,1,0.,24.0,0.,24.0
1979-07-01 09:45:32.870 ,4,0,0.,24.0,0.,24.0
1979-07-01 09:45:56.870 ,3,1,0.,24.0,0.,24.0
1979-07-01 09:46:20.870 ,3,0,0.,24.0,0.,24.0
1979-07-01 09:46:44.870 ,2,1,0.,24.0,0.,24.0
1979-07-01 09:47:08.870 ,2,0,0.,24.0,0.,24.0
1979-07-01 09:47:32.870 ,1,1,0.,24.0,0.,24.0
1979-07-01 09:47:56.870 ,1,0,0.,24.0,0.,24.0
1979-07-01 09:48:20.870 ,0,1,0.,24.0,0.,24.0
1979-07-01 09:48:44.870 ,0,0,0.,24.0,0.,24.0
1979-07-01 09:49:08.870 ,0,1,0.,24.0,0.,24.0
1979-07-01 09:49:32.870 ,0,0,0.,24.0,0.,24.0
1979-07-01 09:49:56.870 ,1,1,0.,24.0,0.,24.0
1979-07-01 09:50:20.870 ,1,0,0.,24.0,0.,24.0
1979-07-01 09:50:44.870 ,2,1,0.,24.0,0.,24.0
1979-07-01 09:51:08.870 ,2,0,0.,24.0,0.,24.0
1979-07-01 09:51:32.870 ,3,1,0.,24.0,0.,24.0
1979-07-01 09:51:56.870 ,3,0,0.,24.0,0.,24.0
1979-07-01 09:52:20.870 ,4,1,0.,24.0,0.,24.0
1979-07-01 09:52:44.870 ,4,0,0.,24.0,0.,24.0
1979-07-01 09:53:08.870 ,5,1,0.,24.0,0.,24.0
1979-07-01 09:53:32.870 ,5,0,0.,24.0,0.,24.0
1979-07-01 09:53:56.870 ,6,1,0.,24.0,0.,24.0
1979-07-01 09:54:20.870 ,6,0,0.,24.0,0.,24.0
1979-07-01 09:54:44.870 ,7,0,0.,24.0,0.,24.0
1979-07-01 09:55:08.870 ,7,0,0.,24.0,0.,24.0
1979-07-01 09:55:32.870 ,0,0,0.,24.0,0.,24.0
1979-07-01 09:55:56.870 ,0,1,0.,24.0,0.,24.0
1979-07-01 09:56:20.870 ,4,1,0.,24.0,0.,24.0
1979-07-01 09:56:44.870 ,7,1,0.,24.0,0.,24.0
1979-07-01 09:57:08.870 ,3,1,0.,24.0,0.,24.0
1979-07-01 09:57:32.870 ,0,1,0.,24.0,0.,24.0
1979-07-01 09:57:56.870 ,4,1,0.,24.0,0.,24.0
1979-07-01 09:58:20.870 ,7,1,0.,24.0,0.,24.0
1979-07-01 09:58:44.870 ,3,1,0.,24.0,0.,24.0
1979-07-01 09:59:08.870 ,0,1,0.,24.0,0.,24.0
1979-07-01 09:59:32.870 ,4,1,0.,24.0,0.,24.0
1979-07-01 09:59:56.870 ,7,1,0.,24.0,0.,24.0
1979-07-01 10:00:20.870 ,3,1,0.,24.0,0.,24.0
1979-07-01 10:00:44.870 ,0,1,0.,24.0,0.,24.0
1979-07-01 10:01:08.870 ,4,1,0.,24.0,0.,24.0
1979-07-01 10:01:32.870 ,7,1,0.,24.0,0.,24.0
1979-07-01 10:01:56.870 ,3,1,0.,24.0,0.,24.0
1979-07-01 10:02:20.870 ,0,1,0.,24.0,0.,24.0
1979-07-01 10:02:44.870 ,4,1,0.,24.0,0.,24.0
1979-07-01 10:03:08.870 ,7,1,0.,24.0,0.,24.0
1979-07-01 10:03:32.870 ,3,1,0.,24.0,0.,24.0
1979-07-01 10:03:56.870 ,0,1,0.,24.0,0.,24.0
1979-07-01 10:04:20.870 ,4,1,0.,24.0,0.,24.0
1979-07-01 10:04:44.870 ,7,1,0.,24.0,0.,24.0
1979-07-01 10:05:08.870 ,3,1,0.,24.0,0.,24.0
1979-07-01 10:05:32.870 ,0,1,0.,24.0,0.,24.0
1979-07-01 10:05:56.870 ,0,0,0.,24.0,0.,24.0
1979-07-01 10:06:20.870 ,0,0,0.,24.0,0.,24.0
1979-07-01 10:06:44.870 ,5,1,0.,24.0,0.,24.0
1979-07-01 10:07:08.870 ,5,0,0.,24.0,0.,24.0
1979-07-01 10:07:32.870 ,4,1,0.,24.0,0.,24.0
1979-07-01 10:07:56.870 ,4,0,0.,24.0,0.,24.0
1979-07-01 10:08:20.870 ,3,1,0.,24.0,0.,24.0
1979-07-01 10:08:44.870 ,3,0,0.,24.0,0.,24.0
1979-07-01 10:09:08.870 ,2,1,0.,24.0,0.,24.0
1979-07-01 10:09:32.870 ,2,0,0.,24.0,0.,24.0
1979-07-01 10:09:56.870 ,1,1,0.,24.0,0.,24.0
1979-07-01 10:10:20.870 ,1,0,0.,24.0,0.,24.0
1979-07-01 10:10:44.870 ,0,1,0.,24.0,0.,24.0
1979-07-01 10:11:08.870 ,0,0,0.,24.0,0.,24.0
1979-07-01 10:11:32.870 ,0,1,0.,24.0,0.,24.0
1979-07-01 10:11:56.870 ,0,0,0.,24.0,0.,24.0
1979-07-01 10:12:20.870 ,1,1,0.,24.0,0.,24.0
1979-07-01 10:12:44.870 ,1,0,0.,24.0,0.,24.0
1979-07-01 10:13:08.870 ,2,1,0.,24.0,0.,24.0
1979-07-01 10:13:32.870 ,2,0,0.,24.0,0.,24.0
1979-07-01 10:13:56.870 ,3,1,0.,24.0,0.,24.0
1979-07-01 10:14:20.870 ,3,0,0.,24.0,0.,24.0
1979-07-01 10:14:44.870 ,4,1,0.,24.0,0.,24.0
1979-07-01 10:15:08.870 ,4,0,0.,24.0,0.,24.0
1979-07-01 10:15:32.870 ,5,1,0.,24.0,0.,24.0
1979-07-01 10:15:56.870 ,5,0,0.,24.0,0.,24.0
1979-07-01 10:16:20.870 ,6,1,0.,24.0,0.,24.0
1979-07-01 10:16:44.870 ,6,0,0.,24.0,0.,24.0
1979-07-01 10:17:08.870 ,7,1,0.,24.0,0.,24.0
1979-07-01 10:17:32.870 ,7,0,0.,24.0,0.,24.0
1979-07-01 10:17:56.870 ,7,1,0.,24.0,0.,24.0
1979-07-01 10:18:20.870 ,7,0,0.,24.0,0.,24.0
1979-07-01 10:18:44.870 ,6,1,0.,24.0,0.,24.0
1979-07-01 10:19:08.870 ,6,0,0.,24.0,0.,24.0
1979-07-01 10:19:32.870 ,5,1,0.,24.0,0.,24.0
1979-07-01 10:19:56.870 ,5,0,0.,24.0,0.,24.0
1979-07-01 10:20:20.870 ,4,1,0.,24.0,0.,24.0
1979-07-01 10:20:44.870 ,4,0,0.,24.0,0.,24.0
1979-07-01 10:21:08.870 ,3,1,0.,24.0,0.,24.0
1979-07-01 10:21:32.870 ,3,0,0.,24.0,0.,24.0
1979-07-01 10:21:56.870 ,2,1,0.,24.0,0.,24.0
1979-07-01 10:22:20.870 ,2,0,0.,24.0,0.,24.0
1979-07-01 10:22:44.870 ,1,1,0.,24.0,0.,24.0
1979-07-01 10:23:08.870 ,1,0,0.,24.0,0.,24.0
1979-07-01 10:23:32.870 ,0,1,0.,24.0,0.,24.0
1979-07-01 10:23:56.870 ,0,0,0.,24.0,0.,24.0
1979-07-01 10:24:20.870 ,0,1,0.,24.0,0.,24.0
1979-07-01 10:24:44.870 ,0,0,0.,24.0,0.,24.0
1979-07-01 10:25:08.870 ,1,1,0.,24.0,0.,24.0
1979-07-01 10:25:32.870 ,1,0,0.,24.0,0.,24.0
1979-07-01 10:25:56.870 ,2,1,0.,24.0,0.,24.0
1979-07-01 10:26:20.870 ,2,0,0.,24.0,0.,24.0
1979-07-01 10:26:44.870 ,3,1,0.,24.0,0.,24.0
1979-07-01 10:27:08.870 ,3,0,0.,24.0,0.,24.0
1979-07-01 10:27:32.870 ,4,1,0.,24.0,0.,24.0
1979-07-01 10:27:56.870 ,4,0,0.,24.0,0.,24.0
1979-07-01 10:28:20.870 ,5,1,0.,24.0,0.,24.0
1979-07-01 10:28:44.870 ,5,0,0.,24.0,0.,24.0
1979-07-01 10:29:08.870 ,6,1,0.,24.0,0.,24.0
1979-07-01 10:29:32.870 ,6,0,0.,24.0,0.,24.0
1979-07-01 10:29:56.870 ,7,1,0.,24.0,0.,24.0
1979-07-01 10:30:20.870 ,0,0,0.,24.0,0.,24.0
1979-07-01 10:30:53.870 ,0,0,2162688.,24.0,0.,24.0
1979-07-01 10:31:08.870 ,0,0,,0,,0
1979-07-01 10:32:21.470 ,0,0,0.,24.0,0.,24.0
1979-07-01 10:32:44.870 ,0,0,0.,24.0,0.,24.0
1979-07-01 10:33:08.870 ,0,0,0.,24.0,0.,24.0
1979-07-01 10:33:32.870 ,0,0,,0,,0
1979-07-01 10:33:56.870 ,0,0,,0,,0
1979-07-01 10:34:20.870 ,0,0,0.,24.0,0.,24.0
1979-07-01 10:34:44.870 ,0,0,30.,24.0,13568.,24.0
1979-07-01 10:35:08.870 ,0,0,0.,24.0,0.,24.0
1979-07-01 10:35:32.870 ,1,1,0.,24.0,0.,24.0
1979-07-01 10:35:56.870 ,1,0,0.,24.0,0.,24.0
1979-07-01 10:36:20.870 ,0,1,0.,24.0,0.,24.0
1979-07-01 10:36:44.870 ,0,0,0.,24.0,0.,24.0
1979-07-01 10:37:08.870 ,0,0,,0,,0
1979-07-01 10:37:32.870 ,0,0,,0,,0
1979-07-01 10:38:00.470 ,0,0,,0,,0
1979-07-01 10:38:20.870 ,0,0,,0,,0
1979-07-01 10:40:28.670 ,0,0,,0,,0
1979-07-01 10:40:44.870 ,0,0,,0,,0
1979-07-01 10:41:10.070 ,0,0,0.,24.0,0.,24.0
1979-07-01 10:41:32.870 ,0,0,0.,24.0,0.,24.0
1979-07-01 10:41:56.870 ,6,1,0.,24.0,0.,24.0
1979-07-01 10:42:20.870 ,6,0,,0,,0
1979-07-01 10:42:44.870 ,7,0,0.,24.0,0.,24.0
1979-07-01 10:43:08.870 ,0,0,,0,,0
1979-07-01 10:43:32.870 ,0,0,,0,,0
1979-07-01 10:43:56.870 ,0,0,,0,,0
1979-07-01 10:43:56.870 ,0,0,,0,,0
1979-07-01 10:44:14.270 ,0,0,0.,24.0,0.,24.0
1979-07-01 10:44:20.870 ,0,0,0.,24.0,0.,24.0
1979-07-01 10:44:44.870 ,0,0,0.,24.0,0.,24.0
1979-07-01 10:45:08.870 ,0,0,,0,,0
1979-07-01 10:45:32.870 ,0,0,0.,24.0,0.,24.0
1979-07-01 10:45:56.870 ,4,1,0.,24.0,0.,24.0
1979-07-01 10:46:20.870 ,7,1,0.,24.0,0.,24.0
1979-07-01 10:46:44.870 ,3,1,0.,24.0,0.,24.0
1979-07-01 10:47:08.870 ,0,1,0.,24.0,0.,24.0
1979-07-01 10:47:32.870 ,4,1,0.,24.0,0.,24.0
1979-07-01 10:47:56.870 ,7,1,0.,24.0,0.,24.0
1979-07-01 10:48:20.870 ,3,1,0.,24.0,0.,24.0
1979-07-01 10:48:44.870 ,0,1,0.,24.0,0.,24.0
1979-07-01 10:49:08.870 ,4,1,0.,24.0,0.,24.0
1979-07-01 10:49:32.870 ,7,1,0.,24.0,0.,24.0
1979-07-01 10:49:56.870 ,3,1,0.,24.0,0.,24.0
1979-07-01 10:50:20.870 ,0,1,0.,24.0,0.,24.0
1979-07-01 10:50:44.870 ,4,1,0.,24.0,0.,24.0
1979-07-01 10:51:08.870 ,0,0,0.,24.0,0.,24.0
1979-07-01 10:51:32.870 ,0,0,0.,24.0,0.,24.0
1979-07-01 10:51:56.870 ,0,1,0.,24.0,0.,24.0
1979-07-01 10:52:20.870 ,4,1,8448.,24.0,0.,24.0
1979-07-01 10:52:44.870 ,0,0,,0,,0
1979-07-01 10:53:08.870 ,0,0,0.,24.0,0.,24.0
1979-07-01 10:53:32.870 ,0,1,0.,24.0,0.,24.0
1979-07-01 10:53:56.870 ,0,0,,0,,0
1979-07-01 10:54:20.870 ,0,0,,0,,0
1979-07-01 10:55:25.070 ,0,0,,0,,0
1979-07-01 10:55:34.070 ,0,0,,0,,0
1979-07-01 10:55:56.870 ,0,0,0.,24.0,0.,24.0
1979-07-01 10:56:20.870 ,3,1,0.,24.0,0.,24.0
1979-07-01 10:56:44.870 ,3,0,0.,24.0,0.,24.0
1979-07-01 10:57:08.870 ,2,1,0.,24.0,0.,24.0
1979-07-01 10:57:32.870 ,2,0,0.,24.0,0.,24.0
1979-07-01 10:57:56.870 ,1,1,0.,24.0,0.,24.0
1979-07-01 10:58:20.870 ,1,0,0.,24.0,0.,24.0
1979-07-01 10:58:44.870 ,0,0,0.,24.0,0.,24.0
1979-07-01 10:59:08.870 ,0,0,,0,,0
1979-07-01 10:59:33.470 ,0,0,,0,,0
1979-07-01 10:59:56.870 ,0,0,,0,,0
1979-07-01 11:00:42.470 ,0,0,,0,,0
1979-07-01 11:00:44.870 ,0,0,,0,,0
1979-07-01 11:47:11.260 ,0,0,0.,24.0,0.,24.0
1979-07-01 11:47:32.860 ,0,0,,0,,0
1979-07-01 11:47:56.860 ,0,0,0.,24.0,0.,24.0
1979-07-01 11:48:20.860 ,1,1,0.,24.0,0.,24.0
1979-07-01 11:48:44.860 ,1,0,0.,24.0,0.,24.0
1979-07-01 11:49:08.860 ,0,0,0.,24.0,0.,24.0
1979-07-01 11:49:32.860 ,0,0,0.,24.0,0.,24.0
1979-07-01 11:49:56.860 ,0,0,0.,24.0,0.,24.0
1979-07-01 11:50:20.860 ,0,0,,0,,0
1979-07-01 11:50:45.460 ,4,0,,0,,0
1979-07-01 11:51:08.860 ,4,0,0.,24.0,0.,24.0
1979-07-01 11:51:32.860 ,0,0,,0,,0
1979-07-01 11:51:56.860 ,0,0,0.,24.0,0.,24.0
1979-07-01 11:52:20.860 ,0,0,0.,24.0,0.,24.0
1979-07-01 11:52:44.860 ,0,0,0.,24.0,0.,24.0
1979-07-01 11:53:08.860 ,7,1,0.,24.0,0.,24.0
1979-07-01 11:53:32.860 ,7,0,0.,24.0,0.,24.0
1979-07-01 11:53:56.860 ,0,0,131072.,24.0,8192.,24.0
1979-07-01 11:54:20.860 ,0,0,0.,24.0,0.,24.0
1979-07-01 11:56:20.860 ,0,0,0.,24.0,0.,24.0
1979-07-01 11:56:44.860 ,0,0,,0,,0
1979-07-01 11:57:08.860 ,3,0,,0,,0
1979-07-01 11:57:32.860 ,0,0,0.,24.0,0.,24.0
1979-07-01 11:57:57.460 ,0,0,,0,,0
1979-07-01 11:58:20.860 ,0,0,,0,,0
1979-07-01 11:58:47.860 ,0,0,,0,,0
1979-07-01 11:59:08.860 ,0,0,,0,,0
